Other Surface Observations
Issued by NWS Missoula, MT

Home | Current Version | Previous Version | Text Only | Print | Product List | Glossary On
Versions: 1 2 3 4 5 6 7 8 9 10 11 12 13 14 15 16 17 18 19 20 21 22 23 24 25 26 27 28 29 30 31 32 33 34 35 36 37 38 39 40 41 42 43 44 45 46 47 48 49 50
000
SXUS55 KMSO 181824
OSOMSO
MONTANA AWOS SUMMARY
NATIONAL WEATHER SERVICE MISSOULA MT
1223 PM MDT THU SEP 18 2014

Montana AWOS Reports

LAUREL      |K6S8 181815Z AUTO 00000KT 15SM 16/12 A2985 RMK AO1 T01560117
ROUNDUP     |KRPX 181815Z AUTO 00000KT 40SM 19/13 A2975 RMK AO1 T01940133
SCOBEY      |K9S2 181755Z AUTO 17004KT 40SM 23/11 A2966 RMK AO1 T02280111




USA.gov is the U.S. government's official web portal to all federal, state and local government web resources and services.